Regional Weather Roundup
Issued by NWS Cleveland, OH

Home | Current Version | Previous Version | Graphics & Text | Print | Product List | Glossary On
Versions: 1 2 3 4 5 6 7 8 9 10 11 12 13 14 15 16 17 18 19 20 21 22 23 24 25 26 27 28 29 30 31 32 33 34 35 36 37 38 39 40 41 42 43 44 45 46 47 48 49 50
000
ASUS41 KCLE 222200
RWRCLE
OHIO REGIONAL WEATHER ROUNDUP
NATIONAL WEATHER SERVICE WILMINGTON, OH
600 PM EDT SUN APR 22 2018

NOTE: "FAIR" INDICATES FEW OR NO CLOUDS BELOW 12,000 FEET WITH NO
SIGNIFICANT WEATHER AND/OR OBSTRUCTIONS TO VISIBILITY.

OHZ001>008-015>018-024>027-034-035-043-044-222300-
   NORTHWEST OHIO

CITY           SKY/WX    TMP DP  RH WIND       PRES   REMARKS
DEFIANCE       FAIR      58  22  24 NE14      30.28
FINDLAY        FAIR      60  23  24 NE17      30.27S
TOLEDO EXPRESS FAIR      58  17  20 E21       30.31F
TOLEDO EXEC    FAIR      56  22  26 E14G22    30.33F
LIMA           FAIR      62  33  33 NE13      30.25S
$$

OHZ009>014-019>023-028>033-038-089-222300-
   NORTHEAST OHIO

CITY           SKY/WX    TMP DP  RH WIND       PRES   REMARKS
CLE-HOPKINS    PTSUNNY   57  23  26 NE21      30.32F
CLE-LAKEFRONT  FAIR      48  35  60 NE16      30.30F
CUY CO. ARPT   MOSUNNY   59  25  27 NE16G23   30.31S
LORAIN-ELYRIA  FAIR      54  21  27 NE24      30.31S
ASHTABULA      FAIR      57  21  24 NE12G20   30.32F
AKRON-CANTON   FAIR      66  22  18 E12       30.26F
WOOSTER        NOT AVBL
MANSFIELD      FAIR      61  30  31 N13       30.26S
YOUNGSTOWN     PTSUNNY   66  19  16 E5        30.27F
$$

OHZ042-051>053-060>062-070>072-077>081-222300-
  SOUTHWEST OHIO

CITY           SKY/WX    TMP DP  RH WIND       PRES   REMARKS
CINC-COVINGTON CLOUDY    63  28  26 E13       30.17F
CINC-LUNKEN    FAIR      64  34  32 E9        30.18F
HAMILTON       FAIR      66  30  26 NE13      30.19F
DAYTON         NOT AVBL
WRIGHT-PAT AFB FAIR      65  29  26 NE12      30.21S
DAYTON GENERAL FAIR      68  26  20 E9        30.19F
WILMINGTON     FAIR      65  27  23 E7        30.20F
$$

OHZ036-037-039>041-045>050-054>059-063>069-073>076-082>088-222300-
  CENTRAL AND SOUTHEAST OHIO

CITY           SKY/WX    TMP DP  RH WIND       PRES   REMARKS
COLUMBUS       PTSUNNY   68  26  20 NE10      30.22F
OSU AIRPORT    FAIR      65  29  25 E8        30.22F
BOLTON FIELD   SUNNY     66  30  26 NE8       30.23S
RICKENBACK AFB NOT AVBL
NEWARK         FAIR      67  26  21 NE10      30.22S
MARION         FAIR      64  25  22 E12G17    30.24F
LANCASTER      FAIR      67  30  25 NE10      30.22F
ZANESVILLE     FAIR      67  27  22 E8        30.23S
NEW PHILLY     FAIR      69  28  21 NE6       30.24S
$$



USA.gov is the U.S. government's official web portal to all federal, state and local government web resources and services.